FW8542 Weather Reports


Display with metric or nautical units.
time (UTC)temp
F
wind
direction
speed
MPH
gust
MPH
rain 1hr
in
rain 24hr
in
rain mn
in
humidity
%
barometer
mb
20260508090904 57 163 3.0 8.0 0.00 0.00 0.00 71 1010.5
20260508090004 57 151 3.0 6.0 0.00 0.00 0.00 72 1010.5
20260508085425 57 159 3.0 6.0 0.00 0.00 0.00 70 1010.4
20260508084504 57 151 3.0 5.0 0.00 0.00 0.00 71 1010.3
20260508083625 56 164 3.0 8.0 0.00 0.00 0.00 72 1010.3
20260508082705 56 165 2.0 5.0 0.00 0.00 0.00 72 1010.4
20260508081804 56 172 2.0 5.0 0.00 0.00 0.00 73 1010.4
20260508080904 55 160 2.0 5.0 0.00 0.00 0.00 74 1010.4
20260508080004 54 154 2.0 5.0 0.00 0.00 0.00 75 1010.3
20260508075404 54 154 2.0 5.0 0.00 0.00 0.00 75 1010.2
20260508074504 54 160 2.0 5.0 0.00 0.00 0.00 76 1010.2
20260508073603 53 156 3.0 6.0 0.00 0.00 0.00 79 1010.2
20260508072703 52 151 2.0 5.0 0.00 0.00 0.00 78 1010.1
20260508071804 52 161 3.0 7.0 0.00 0.00 0.00 80 1009.9
20260508070904 51 159 3.0 8.0 0.00 0.00 0.00 80 1009.9
20260508070004 50 161 3.0 10.0 0.00 0.00 0.00 81 1009.9
20260508065404 50 160 4.0 10.0 0.00 0.00 0.00 81 1009.8
20260508064504 50 163 3.0 10.0 0.00 0.00 0.00 82 1009.8
20260508063603 49 160 3.0 8.0 0.00 0.00 0.00 83 1009.6
20260508062703 49 158 3.0 8.0 0.00 0.00 0.00 83 1009.5
20260508061803 48 172 2.0 5.0 0.00 0.00 0.00 84 1009.5
20260508060903 48 174 1.0 4.0 0.00 0.00 0.00 84 1009.3
20260508060003 48 162 2.0 5.0 0.00 0.00 0.00 84 1009.3
20260508055403 48 161 2.0 5.0 0.00 0.00 0.00 84 1009.4
20260508054504 48 204 0.0 3.0 0.00 0.00 0.00 84 1009.3
20260508053603 47 179 1.0 4.0 0.00 0.00 0.00 85 1009.3
20260508052703 47 180 2.0 4.0 0.00 0.00 0.00 85 1009.2
20260508051804 47 170 2.0 5.0 0.00 0.00 0.00 84 1009.1
20260508050903 47 184 1.0 4.0 0.00 0.00 0.00 84 1009.2
20260508050003 47 160 2.0 5.0 0.00 0.00 0.00 85 1009.1
20260508045403 47 160 1.0 4.0 0.00 0.00 0.00 85 1009.1
20260508044503 47 164 1.0 4.0 0.00 0.00 0.00 85 1009.0
20260508043603 47 169 2.0 4.0 0.00 0.00 0.00 85 1009.0
20260508042707 47 164 1.0 4.0 0.00 0.00 0.00 85 1009.0
20260508041807 47 164 0.0 4.0 0.00 0.00 0.00 85 1008.9
20260508040907 47 164 0.0 2.0 0.00 0.00 0.00 85 1008.9
20260508040007 46 159 0.0 2.0 0.00 0.00 0.00 85 1008.8
20260508035407 46 170 0.0 2.0 0.00 0.00 0.00 85 1008.8
20260508034507 47 156 1.0 3.0 0.00 0.00 0.00 85 1008.9
20260508033628 47 163 0.0 5.0 0.00 0.00 0.00 85 1008.9
20260508032707 47 115 0.0 1.0 0.00 0.00 0.00 85 1008.9
20260508031807 47 119 0.0 2.0 0.00 0.00 0.00 85 1008.9
20260508030928 46 0 0.0 0.0 0.00 0.00 0.00 85 1008.9
20260508030027 46 0 0.0 0.0 0.00 0.00 0.00 85 1008.9
20260508025407 46 0 0.0 0.0 0.00 0.00 0.00 85 1008.8
20260508024506 46 257 0.0 3.0 0.00 0.00 0.00 84 1008.8
20260508023607 47 215 1.0 3.0 0.00 0.00 0.00 84 1008.9
20260508022727 47 148 0.0 2.0 0.00 0.00 0.00 84 1008.9
20260508021806 47 168 1.0 4.0 0.00 0.00 0.00 84 1008.9
20260508020927 47 164 2.0 4.0 0.00 0.00 0.00 83 1008.7
20260508020027 47 166 3.0 5.0 0.00 0.00 0.00 83 1008.5
20260508015406 47 165 3.0 5.0 0.00 0.00 0.00 83 1008.6
20260508014506 48 166 3.0 5.0 0.00 0.00 0.00 83 1008.5
20260508013606 48 170 2.0 4.0 0.00 0.00 0.00 83 1008.6
20260508012706 48 168 2.0 4.0 0.00 0.00 0.00 82 1008.5
20260508011806 48 165 2.0 4.0 0.00 0.00 0.00 82 1008.5
20260508010906 48 164 2.0 7.0 0.00 0.00 0.00 82 1008.5
20260508010006 49 164 2.0 5.0 0.00 0.00 0.00 81 1008.7
20260508005406 49 160 2.0 5.0 0.00 0.00 0.00 81 1008.7
20260508004506 49 162 2.0 6.0 0.00 0.00 0.00 81 1008.7
20260508003606 49 156 2.0 5.0 0.00 0.00 0.00 80 1008.7
20260508002707 49 155 2.0 5.0 0.00 0.00 0.00 80 1008.8
20260508001806 49 175 2.0 5.0 0.00 0.00 0.00 79 1008.9
20260508000907 50 165 3.0 6.0 0.00 0.00 0.00 79 1008.8
20260508000006 50 163 3.0 9.0 0.00 0.00 0.00 79 1008.9
20260507235407 50 163 4.0 8.0 0.00 0.00 0.00 79 1008.8
20260507234506 50 163 4.0 9.0 0.00 0.00 0.00 79 1008.7
20260507233606 50 159 3.0 9.0 0.00 0.00 0.00 79 1008.7
20260507232706 50 168 3.0 8.0 0.00 0.00 0.00 78 1008.7
20260507231806 50 168 3.0 6.0 0.00 0.00 0.00 78 1008.6
20260507230927 50 165 3.0 9.0 0.00 0.00 0.00 77 1008.6
20260507230027 50 163 3.0 8.0 0.00 0.00 0.00 76 1008.5
20260507225406 51 167 4.0 8.0 0.00 0.00 0.00 75 1008.6
20260507224506 51 166 4.0 8.0 0.00 0.00 0.00 74 1008.5
20260507223627 51 174 3.0 9.0 0.00 0.00 0.00 74 1008.6
20260507222706 51 167 4.0 9.0 0.00 0.00 0.00 73 1008.5
20260507221806 51 163 4.0 8.0 0.00 0.00 0.00 73 1008.5
20260507220906 52 164 4.0 9.0 0.00 0.00 0.00 73 1008.4
20260507220007 52 161 4.0 9.0 0.00 0.00 0.00 72 1008.5
20260507215406 52 165 4.0 9.0 0.00 0.00 0.00 72 1008.6
20260507214527 52 163 5.0 10.0 0.00 0.00 0.00 72 1008.6
20260507213607 52 166 5.0 11.0 0.00 0.00 0.00 72 1008.6
20260507212706 52 163 5.0 11.0 0.00 0.00 0.00 72 1008.6
20260507211806 52 167 3.0 8.0 0.00 0.00 0.00 73 1008.5
20260507210906 52 160 3.0 8.0 0.00 0.00 0.00 73 1008.4
20260507210006 52 159 2.0 6.0 0.00 0.00 0.00 73 1008.4
20260507205406 52 163 2.0 7.0 0.00 0.00 0.00 73 1008.3
20260507204506 52 166 3.0 8.0 0.00 0.00 0.00 73 1008.4
20260507203605 52 161 2.0 4.0 0.00 0.00 0.00 72 1008.3
20260507202705 52 161 1.0 4.0 0.00 0.00 0.00 72 1008.3
20260507201805 52 158 0.0 2.0 0.00 0.00 0.00 71 1008.2
20260507200907 52 173 0.0 2.0 0.00 0.00 0.00 71 1008.2
20260507200006 52 168 0.0 1.0 0.00 0.00 0.00 71 1008.2
20260507195406 52 166 0.0 3.0 0.00 0.00 0.00 71 1008.1
20260507194505 52 164 1.0 3.0 0.00 0.00 0.00 71 1008.0
20260507193605 52 169 1.0 3.0 0.00 0.00 0.00 71 1007.9
20260507192705 52 171 1.0 4.0 0.00 0.00 0.00 70 1007.9
20260507191806 53 174 2.0 4.0 0.00 0.00 0.00 69 1007.8
20260507190906 53 164 2.0 5.0 0.00 0.00 0.00 69 1007.8
20260507190006 53 170 2.0 4.0 0.00 0.00 0.00 69 1007.6
20260507185405 53 164 2.0 7.0 0.00 0.00 0.00 69 1007.6
20260507184505 54 166 3.0 6.0 0.00 0.00 0.00 68 1007.6
20260507183605 54 167 2.0 5.0 0.00 0.00 0.00 68 1007.6
20260507182705 54 170 2.0 6.0 0.00 0.00 0.00 67 1007.6
20260507181805 54 165 2.0 5.0 0.00 0.00 0.00 68 1007.6
20260507180905 54 168 2.0 6.0 0.00 0.00 0.00 68 1007.6
20260507180027 54 161 2.0 5.0 0.00 0.00 0.00 68 1007.6
20260507175426 55 165 2.0 5.0 0.00 0.00 0.00 68 1007.5
20260507174505 54 171 2.0 5.0 0.00 0.00 0.00 68 1007.7
20260507173605 54 166 1.0 4.0 0.00 0.00 0.00 69 1007.6
20260507172705 54 165 1.0 3.0 0.00 0.00 0.00 68 1007.6
20260507171805 55 159 2.0 4.0 0.00 0.00 0.00 69 1007.6
20260507170906 55 158 2.0 5.0 0.00 0.00 0.00 68 1007.7
20260507170005 55 163 3.0 9.0 0.00 0.00 0.00 68 1007.8
20260507165405 55 158 4.0 9.0 0.00 0.00 0.00 68 1007.8
20260507164505 55 161 3.0 7.0 0.00 0.00 0.00 68 1007.9
20260507163605 54 153 3.0 7.0 0.00 0.00 0.00 68 1007.9
20260507162705 54 158 3.0 8.0 0.00 0.00 0.00 68 1007.9
20260507161826 54 158 3.0 7.0 0.00 0.00 0.00 69 1008.0
20260507160905 54 158 2.0 7.0 0.00 0.00 0.00 70 1008.1
20260507160005 54 156 3.0 8.0 0.00 0.00 0.00 69 1008.1
20260507155405 54 154 3.0 8.0 0.00 0.00 0.00 71 1008.2
20260507154505 53 152 3.0 5.0 0.00 0.00 0.00 70 1008.2
20260507153605 53 154 3.0 8.0 0.00 0.00 0.00 71 1008.3
20260507152705 53 168 2.0 5.0 0.00 0.00 0.00 71 1008.3
20260507151826 53 158 2.0 5.0 0.00 0.00 0.00 71 1008.5
20260507150905 52 160 2.0 6.0 0.00 0.00 0.00 71 1008.4
20260507150027 52 178 3.0 8.0 0.00 0.00 0.00 71 1008.4
20260507145405 52 169 4.0 10.0 0.00 0.00 0.00 70 1008.6
20260507144506 52 165 4.0 10.0 0.00 0.00 0.00 70 1008.6
20260507143605 52 170 3.0 9.0 0.00 0.00 0.00 70 1008.6
20260507142705 52 167 3.0 9.0 0.00 0.00 0.00 70 1008.7
20260507141826 52 171 3.0 7.0 0.00 0.00 0.00 71 1008.7
20260507140926 52 170 3.0 8.0 0.00 0.00 0.00 71 1008.8
20260507140025 53 163 4.0 10.0 0.00 0.00 0.00 71 1008.8
20260507135405 52 162 4.0 10.0 0.00 0.00 0.00 70 1008.8
20260507134504 52 157 5.0 12.0 0.00 0.00 0.00 70 1008.9
20260507133604 53 167 3.0 5.0 0.00 0.00 0.00 73 1009.0
20260507132704 52 170 3.0 8.0 0.00 0.00 0.00 74 1009.0
20260507131805 52 166 4.0 10.0 0.00 0.00 0.00 73 1009.0
20260507130927 52 163 4.0 10.0 0.00 0.00 0.00 73 1009.0
20260507130005 52 165 4.0 10.0 0.00 0.00 0.00 73 1008.9
20260507125404 52 164 4.0 11.0 0.00 0.00 0.00 73 1008.9
20260507124504 52 168 5.0 12.0 0.00 0.00 0.00 72 1009.0
20260507123625 52 162 6.0 12.0 0.00 0.00 0.00 73 1008.8
20260507122706 53 164 4.0 10.0 0.00 0.00 0.00 72 1008.9
20260507121804 53 162 4.0 10.0 0.00 0.00 0.00 73 1008.7
20260507120904 53 161 5.0 12.0 0.00 0.00 0.00 70 1008.9
20260507120005 53 167 4.0 10.0 0.00 0.00 0.00 70 1009.0
20260507115404 53 165 5.0 10.0 0.00 0.00 0.00 71 1009.0
20260507114504 52 158 5.0 12.0 0.00 0.00 0.00 71 1009.0
20260507113604 53 163 5.0 14.0 0.00 0.00 0.00 71 1009.0
20260507112704 53 156 6.0 12.0 0.00 0.00 0.00 71 1009.1
20260507111805 52 159 5.0 12.0 0.00 0.00 0.00 73 1009.0
20260507110904 52 156 5.0 11.0 0.00 0.00 0.00 72 1009.1
20260507110005 52 157 5.0 10.0 0.00 0.00 0.00 76 1009.2
20260507105404 51 158 5.0 11.0 0.00 0.00 0.00 76 1009.1
20260507104504 50 159 5.0 10.0 0.00 0.00 0.00 75 1009.3
20260507103625 49 155 5.0 11.0 0.00 0.00 0.00 77 1009.4
20260507102704 50 164 5.0 10.0 0.00 0.00 0.00 78 1009.2
20260507101804 49 163 4.0 10.0 0.00 0.00 0.00 78 1009.4
20260507100904 47 160 4.0 9.0 0.00 0.00 0.00 80 1009.4
20260507100005 47 159 4.0 9.0 0.00 0.00 0.00 80 1009.5
20260507095425 46 154 4.0 10.0 0.00 0.00 0.00 80 1009.5
20260507094504 46 169 2.0 6.0 0.00 0.00 0.00 82 1009.5
20260507093625 46 172 3.0 5.0 0.00 0.00 0.00 82 1009.5
20260507092704 45 161 3.0 9.0 0.00 0.00 0.00 82 1009.5
20260507091826 45 161 3.0 6.0 0.00 0.00 0.00 82 1009.5